Date String (YYYY-MM-DD hh:mm:ss) UTC,Instrument flags,absolute air pressure of the measurement (hPa),sample flow rate (lpm),inlet stack bypass flow (lpm),air temperature of the measurement (°C),ambient temperature measured by the external sensor (°C),aerosol sample conditioner tube jacket temperature (°C),OPC LED temperature (°C),internal box temperature (°C),relative humidity of the measurement (%),span deviation,mass concentration of particles derived from Lorenz-Mie calculation of OPC scattering (μg/m³),mass concentration of particles derived from Lorenz-Mie calculation of OPC scattering (μg/m³),mass concentration of particles derived from Lorenz-Mie calculation of OPC scattering (μg/m³)
DateTimeUTC,F1_M11,P_M11,Q1_M11,Q2_M11,T1_M11,T2_M11,T3_M11,T4_M11,T5_M11,U1_M11,ZSPAN_M11,X0_M11,X2_M11,X1_M11
2024-03-23 03:00:00,SystemResetWarning,0827.4,5.00,000.00,025.2,024.4,000.0,033.7,027.1,11.0,0000.0,0016.85,0004.34,0002.28
2024-03-23 03:01:00,SystemResetWarning,0827.4,4.99,000.00,025.2,024.4,000.0,033.7,027.1,11.0,0000.0,0017.49,0004.42,0002.29
2024-03-23 03:02:00,SystemResetWarning,0827.4,4.99,000.00,025.2,024.4,000.0,033.7,027.1,11.0,0000.0,0017.34,0004.44,0002.30
2024-03-23 03:03:00,SystemResetWarning,0827.4,5.00,000.00,025.2,024.4,000.0,033.7,027.1,11.0,0000.0,0016.22,0004.46,0002.32
2024-03-23 03:04:00,SystemResetWarning,0827.4,4.99,000.00,025.2,024.4,000.0,033.7,027.1,11.0,0000.0,0016.79,0004.46,0002.33
2024-03-23 03:05:00,SystemResetWarning,0827.4,5.01,000.00,025.2,024.4,000.0,033.7,027.1,10.9,0000.0,0017.09,0004.42,0002.35
2024-03-23 03:06:00,SystemResetWarning,0827.4,5.00,000.00,025.2,024.4,000.0,033.7,027.1,11.0,0000.0,0015.61,0004.37,0002.37
2024-03-23 03:07:00,SystemResetWarning,0827.5,5.00,000.00,025.2,024.4,000.0,033.7,027.0,11.1,0000.0,0015.19,0004.35,0002.36
2024-03-23 03:08:00,SystemResetWarning,0827.6,5.00,000.00,025.2,024.4,000.0,033.7,027.1,11.2,0000.0,0015.08,0004.29,0002.37
2024-03-23 03:09:00,SystemResetWarning,0827.7,4.99,000.00,025.2,024.4,000.0,033.7,027.1,11.1,0000.0,0015.32,0004.25,0002.37
2024-03-23 03:10:00,SystemResetWarning,0827.6,5.00,000.00,025.2,024.4,000.0,033.7,027.0,11.1,0000.0,0015.14,0004.22,0002.38
2024-03-23 03:11:00,SystemResetWarning,0827.6,5.00,000.00,025.2,024.4,000.0,033.7,027.0,11.1,0000.0,0014.96,0004.23,0002.41
2024-03-23 03:12:00,SystemResetWarning,0827.7,5.00,000.00,025.2,024.4,000.0,033.7,027.0,11.0,0000.0,0014.54,0004.14,0002.40
2024-03-23 03:13:00,SystemResetWarning,0827.4,5.00,000.00,025.2,024.4,000.0,033.7,027.0,10.8,0000.0,0014.16,0004.13,0002.41
2024-03-23 03:14:00,SystemResetWarning,0827.4,5.00,000.00,025.2,024.4,000.0,033.7,027.0,10.9,0000.0,0015.00,0004.17,0002.38
2024-03-23 03:15:00,SystemResetWarning,0827.4,5.01,000.00,025.2,024.4,000.0,033.7,027.0,10.7,0000.0,0014.76,0004.21,0002.34
2024-03-23 03:16:00,SystemResetWarning,0827.4,4.99,000.00,025.2,024.4,000.0,033.7,027.0,10.6,0000.0,0013.81,0004.23,0002.31
2024-03-23 03:17:00,SystemResetWarning,0827.4,5.01,000.00,025.2,024.4,000.0,033.7,027.0,10.7,0000.0,0014.33,0004.32,0002.31
2024-03-23 03:18:00,SystemResetWarning,0827.4,4.99,000.00,025.2,024.4,000.0,033.7,027.0,10.8,0000.0,0014.31,0004.32,0002.29
2024-03-23 03:19:00,SystemResetWarning,0827.4,5.00,000.00,025.2,024.4,000.0,033.7,027.0,10.8,0000.0,0014.26,0004.34,0002.27
2024-03-23 03:20:00,SystemResetWarning,0827.3,4.99,000.00,025.2,024.4,000.0,033.7,027.0,10.7,0000.0,0013.86,0004.30,0002.25
2024-03-23 03:21:00,SystemResetWarning,0827.4,5.00,000.00,025.2,024.4,000.0,033.7,027.0,10.7,0000.0,0013.39,0004.24,0002.22
2024-03-23 03:22:00,SystemResetWarning,0827.4,5.01,000.00,025.2,024.4,000.0,033.7,027.0,10.6,0000.0,0013.18,0004.18,0002.18
2024-03-23 03:23:00,SystemResetWarning,0827.4,5.00,000.00,025.2,024.4,000.0,033.7,027.0,11.0,0000.0,0013.46,0004.20,0002.16
2024-03-23 03:24:00,SystemResetWarning,0827.4,5.00,000.00,025.1,024.4,000.0,033.7,027.0,10.8,0000.0,0013.44,0004.23,0002.13
2024-03-23 03:25:00,SystemResetWarning,0827.3,5.01,000.00,025.1,024.4,000.0,033.7,027.0,10.8,0000.0,0012.92,0004.19,0002.09
2024-03-23 03:26:00,SystemResetWarning,0827.4,5.00,000.00,025.1,024.4,000.0,033.7,027.0,10.7,0000.0,0012.63,0004.17,0002.10
2024-03-23 03:27:00,SystemResetWarning,0827.4,5.00,000.00,025.1,024.3,000.0,033.7,027.0,10.5,0000.0,0012.81,0004.24,0002.11
2024-03-23 03:28:00,SystemResetWarning,0827.4,5.00,000.00,025.1,024.3,000.0,033.7,026.9,10.3,0000.0,0012.99,0004.21,0002.08
2024-03-23 03:29:00,SystemResetWarning,0827.4,5.00,000.00,025.1,024.3,000.0,033.7,027.0,10.3,0000.0,0012.67,0004.21,0002.08
2024-03-23 03:30:00,SystemResetWarning,0827.4,5.00,000.00,025.1,024.3,000.0,033.7,027.0,10.3,0000.0,0013.08,0004.24,0002.09
2024-03-23 03:31:00,SystemResetWarning,0827.4,5.00,000.00,025.1,024.3,000.0,033.7,026.9,10.5,0000.0,0013.64,0004.29,0002.08
2024-03-23 03:32:00,SystemResetWarning,0827.3,5.01,000.00,025.1,024.3,000.0,033.7,026.9,11.1,0000.0,0013.98,0004.31,0002.06
2024-03-23 03:33:00,SystemResetWarning,0827.4,5.01,000.00,025.1,024.3,000.0,033.7,026.9,11.5,0000.0,0013.45,0004.29,0002.06
2024-03-23 03:34:00,SystemResetWarning,0827.4,5.01,000.00,025.1,024.3,000.0,033.7,026.9,11.4,0000.0,0012.78,0004.24,0002.04
2024-03-23 03:35:00,SystemResetWarning,0827.3,5.00,000.00,025.1,024.3,000.0,033.7,026.9,11.1,0000.0,0012.55,0004.22,0002.06
2024-03-23 03:36:00,SystemResetWarning,0827.4,4.99,000.00,025.1,024.2,000.0,033.7,026.9,11.1,0000.0,0012.32,0004.20,0002.08
2024-03-23 03:37:00,SystemResetWarning,0827.4,5.00,000.00,025.1,024.2,000.0,033.7,026.9,11.1,0000.0,0012.06,0004.19,0002.10
2024-03-23 03:38:00,SystemResetWarning,0827.3,5.02,000.00,025.1,024.2,000.0,033.6,026.9,11.5,0000.0,0012.39,0004.06,0002.08
2024-03-23 03:39:00,SystemResetWarning,0827.3,4.99,000.00,025.0,024.2,000.0,033.6,026.9,10.7,0000.0,0011.99,0003.99,0002.11
2024-03-23 03:40:00,SystemResetWarning,0827.4,5.00,000.00,025.0,024.2,000.0,033.6,026.9,10.4,0000.0,0012.16,0003.93,0002.10
2024-03-23 03:41:00,SystemResetWarning,0827.4,5.00,000.00,025.0,024.2,000.0,033.6,026.9,10.7,0000.0,0011.85,0003.86,0002.09
2024-03-23 03:42:00,SystemResetWarning,0827.4,4.99,000.00,025.0,024.2,000.0,033.6,026.9,10.3,0000.0,0011.31,0003.83,0002.11
2024-03-23 03:43:00,SystemResetWarning,0827.4,5.01,000.00,025.0,024.2,000.0,033.6,026.8,10.4,0000.0,0010.89,0003.79,0002.13
2024-03-23 03:44:00,SystemResetWarning,0827.4,5.00,000.00,025.0,024.2,000.0,033.6,026.8,10.3,0000.0,0011.42,0003.85,0002.13
2024-03-23 03:45:00,SystemResetWarning,0827.4,4.99,000.00,025.0,024.2,000.0,033.6,026.8,10.1,0000.0,0011.70,0003.91,0002.16
2024-03-23 03:46:00,SystemResetWarning,0827.4,5.00,000.00,025.0,024.2,000.0,033.6,026.8,09.9,0000.0,0012.14,0004.01,0002.18
2024-03-23 03:47:00,SystemResetWarning,0827.3,5.00,000.00,025.0,024.2,000.0,033.6,026.8,09.8,0000.0,0013.20,0004.07,0002.20
2024-03-23 03:48:00,SystemResetWarning,0827.3,4.99,000.00,025.0,024.2,000.0,033.6,026.8,09.9,0000.0,0014.06,0004.11,0002.21
2024-03-23 03:49:00,SystemResetWarning,0827.3,5.00,000.00,025.0,024.1,000.0,033.6,026.8,09.9,0000.0,0013.66,0004.16,0002.22
2024-03-23 03:50:00,SystemResetWarning,0827.3,5.00,000.00,025.0,024.1,000.0,033.6,026.8,09.8,0000.0,0013.55,0004.23,0002.21
2024-03-23 03:51:00,SystemResetWarning,0827.3,5.01,000.00,025.0,024.1,000.0,033.6,026.8,10.0,0000.0,0014.06,0004.31,0002.21
2024-03-23 03:52:00,SystemResetWarning,0827.3,5.00,000.00,025.0,024.1,000.0,033.6,026.8,10.8,0000.0,0014.02,0004.37,0002.21
2024-03-23 03:53:00,SystemResetWarning,0827.3,5.00,000.00,025.0,024.1,000.0,033.6,026.8,11.5,0000.0,0014.45,0004.42,0002.20
2024-03-23 03:54:00,SystemResetWarning,0827.2,5.00,000.00,024.9,024.1,000.0,033.5,026.8,11.6,0000.0,0014.48,0004.49,0002.22
2024-03-23 03:55:00,SystemResetWarning,0827.3,5.00,000.00,024.9,024.1,000.0,033.5,026.8,11.0,0000.0,0014.08,0004.47,0002.23
2024-03-23 03:56:00,SystemResetWarning,0827.3,5.00,000.00,024.9,024.1,000.0,033.5,026.8,10.8,0000.0,0013.98,0004.47,0002.22
2024-03-23 03:57:00,SystemResetWarning,0827.3,4.99,000.00,024.9,024.1,000.0,033.5,026.8,11.0,0000.0,0013.62,0004.37,0002.19
2024-03-23 03:58:00,SystemResetWarning,0827.3,4.99,000.00,024.9,024.1,000.0,033.5,026.8,10.6,0000.0,0013.14,0004.36,0002.19
2024-03-23 03:59:00,SystemResetWarning,0827.3,4.99,000.00,024.9,024.1,000.0,033.5,026.8,10.7,0000.0,0012.24,0004.32,0002.17
